,,Stat5,,Stat1,,Stat2,,Stat3,,Stat4,,Wind1,,Wind1,
time,status,PA1M_AVG,status,PR1M_SUM,status,RH1M_AVG,status,SR1M_AVG,status,TA1M_AVG,status,W1dAve1m,status,W1sAve1m,
2003-04-29, 00:00:00,VALID,916.185,VALID,0,VALID,100,VALID,0.373578,VALID,20.2775,VALID,143,VALID,0.118566,
2003-04-29, 00:01:00,VALID,916.177,VALID,0,VALID,100,VALID,0.322636,VALID,20.2676,VALID,143,VALID,0.00325521,
2003-04-29, 00:02:00,VALID,916.148,VALID,0,VALID,100,VALID,0.305655,VALID,20.2743,VALID,61,VALID,0.269231,
2003-04-29, 00:03:00,VALID,916.13,VALID,0,VALID,100,VALID,0.339617,VALID,20.2805,VALID,4,VALID,0.386133,
2003-04-29, 00:04:00,VALID,916.104,VALID,0,VALID,100,VALID,0.390559,VALID,20.3195,VALID,18,VALID,0.521019,
2003-04-29, 00:05:00,VALID,916.078,VALID,0,VALID,100,VALID,0.390559,VALID,20.3258,VALID,19,VALID,0.580128,
2003-04-29, 00:06:00,VALID,916.041,VALID,0,VALID,100,VALID,0.322636,VALID,20.3101,VALID,35,VALID,0.825521,
2003-04-29, 00:07:00,VALID,916.007,VALID,0,VALID,100,VALID,0.424521,VALID,20.2643,VALID,39,VALID,0.883789,
2003-04-29, 00:08:00,VALID,915.984,VALID,0,VALID,100,VALID,0.390559,VALID,20.232,VALID,29,VALID,1.03947,
2003-04-29, 00:09:00,VALID,915.969,VALID,0,VALID,100,VALID,0.458482,VALID,20.2201,VALID,29,VALID,0.908361,
2003-04-29, 00:10:00,VALID,915.966,VALID,0,VALID,100,VALID,0.373578,VALID,20.2206,VALID,27,VALID,0.894848,
2003-04-29, 00:11:00,VALID,915.961,VALID,0,VALID,100,VALID,0.305655,VALID,20.2012,VALID,30,VALID,0.978207,
2003-04-29, 00:12:00,VALID,915.933,VALID,0,VALID,100,VALID,0.305655,VALID,20.1947,VALID,13,VALID,0.881696,
2003-04-29, 00:13:00,VALID,915.905,VALID,0,VALID,100,VALID,0.390559,VALID,20.2014,VALID,21,VALID,0.919118,
2003-04-29, 00:14:00,VALID,915.877,VALID,0,VALID,100,VALID,0.322636,VALID,20.2049,VALID,45,VALID,0.802837,
2003-04-29, 00:15:00,VALID,915.841,VALID,0,VALID,100,VALID,0.356597,VALID,20.1979,VALID,38,VALID,0.657143,
2003-04-29, 00:16:00,VALID,915.828,VALID,0,VALID,100,VALID,0.356597,VALID,20.1745,VALID,39,VALID,0.719643,
2003-04-29, 00:17:00,VALID,915.799,VALID,0,VALID,100,VALID,0.356597,VALID,20.1915,VALID,41,VALID,0.795873,
2003-04-29, 00:18:00,VALID,915.781,VALID,0,VALID,100,VALID,0.424521,VALID,20.2044,VALID,42,VALID,1.01494,
2003-04-29, 00:19:00,VALID,915.755,VALID,0,VALID,100,VALID,0.373578,VALID,20.1885,VALID,46,VALID,1.31741,
2003-04-29, 00:20:00,VALID,915.729,VALID,0,VALID,100,VALID,0.424521,VALID,20.2176,VALID,43,VALID,1.09492,
2003-04-29, 00:21:00,VALID,915.707,VALID,0,VALID,100,VALID,0.356597,VALID,20.2367,VALID,33,VALID,1.3567,
2003-04-29, 00:22:00,VALID,915.683,VALID,0,VALID,100,VALID,0.40754,VALID,20.237,VALID,35,VALID,0.940947,
2003-04-29, 00:23:00,VALID,915.671,VALID,0,VALID,100,VALID,0.40754,VALID,20.2564,VALID,52,VALID,0.422492,
2003-04-29, 00:24:00,VALID,915.657,VALID,0,VALID,100,VALID,0.373578,VALID,20.2367,VALID,60,VALID,0.153571,
2003-04-29, 00:25:00,VALID,915.638,VALID,0,VALID,100,VALID,0.40754,VALID,20.2375,VALID,69,VALID,0.0462054,
2003-04-29, 00:26:00,VALID,915.674,VALID,0,VALID,100,VALID,0.390559,VALID,20.2303,VALID,96,VALID,0.473157,
2003-04-29, 00:27:00,VALID,915.7,VALID,0,VALID,100,VALID,0.40754,VALID,20.2435,VALID,100,VALID,0.608915,
2003-04-29, 00:28:00,VALID,915.748,VALID,0,VALID,100,VALID,0.373578,VALID,20.2273,VALID,110,VALID,0.909375,
2003-04-29, 00:29:00,VALID,915.796,VALID,0,VALID,100,VALID,0.40754,VALID,20.2432,VALID,153,VALID,0.773242,
2003-04-29, 00:30:00,VALID,915.838,VALID,0,VALID,100,VALID,0.492444,VALID,20.2631,VALID,128,VALID,1.04308,
2003-04-29, 00:31:00,VALID,915.873,VALID,0,VALID,100,VALID,0.40754,VALID,20.2427,VALID,131,VALID,0.480469,
2003-04-29, 00:32:00,VALID,915.887,VALID,0,VALID,100,VALID,0.424521,VALID,20.2788,VALID,119,VALID,0.695313,
2003-04-29, 00:33:00,VALID,915.9,VALID,0,VALID,100,VALID,0.441502,VALID,20.2659,VALID,94,VALID,1.33549,
2003-04-29, 00:34:00,VALID,915.881,VALID,0,VALID,100,VALID,0.458482,VALID,20.2308,VALID,127,VALID,1.23237,
2003-04-29, 00:35:00,VALID,915.88,VALID,0,VALID,100,VALID,0.40754,VALID,20.234,VALID,123,VALID,0.957732,
2003-04-29, 00:36:00,VALID,915.877,VALID,0,VALID,100,VALID,0.40754,VALID,20.2298,VALID,101,VALID,1.21324,
2003-04-29, 00:37:00,VALID,915.862,VALID,0,VALID,100,VALID,0.475463,VALID,20.2144,VALID,139,VALID,0.755134,
2003-04-29, 00:38:00,VALID,915.869,VALID,0,VALID,100,VALID,0.424521,VALID,20.2141,VALID,136,VALID,0.636523,
2003-04-29, 00:39:00,VALID,915.857,VALID,0,VALID,100,VALID,0.441502,VALID,20.2211,VALID,111,VALID,0.70067,
2003-04-29, 00:40:00,VALID,915.862,VALID,0,VALID,100,VALID,0.475463,VALID,20.1915,VALID,125,VALID,0.809513,
2003-04-29, 00:41:00,VALID,915.863,VALID,0,VALID,100,VALID,0.458482,VALID,20.1984,VALID,113,VALID,0.651316,
2003-04-29, 00:42:00,VALID,915.859,VALID,0,VALID,100,VALID,0.492444,VALID,20.2022,VALID,119,VALID,1.04018,
2003-04-29, 00:43:00,VALID,915.868,VALID,0,VALID,100,VALID,0.441502,VALID,20.1756,VALID,136,VALID,0.928571,
2003-04-29, 00:44:00,VALID,915.844,VALID,0,VALID,100,VALID,0.492444,VALID,20.1723,VALID,123,VALID,1.34375,
2003-04-29, 00:45:00,VALID,915.826,VALID,0,VALID,100,VALID,0.458482,VALID,20.1758,VALID,130,VALID,0.953814,
2003-04-29, 00:46:00,VALID,915.814,VALID,0,VALID,100,VALID,0.475463,VALID,20.1459,VALID,122,VALID,0.964286,
2003-04-29, 00:47:00,VALID,915.782,VALID,0,VALID,100,VALID,0.492444,VALID,20.1596,VALID,127,VALID,1.01934,
2003-04-29, 00:48:00,VALID,915.78,VALID,0,VALID,100,VALID,0.475463,VALID,20.1497,VALID,131,VALID,0.976339,
2003-04-29, 00:49:00,VALID,915.765,VALID,0,VALID,100,VALID,0.475463,VALID,20.1281,VALID,137,VALID,1.10547,
2003-04-29, 00:50:00,VALID,915.775,VALID,0,VALID,100,VALID,0.475463,VALID,20.1238,VALID,127,VALID,1.03824,
2003-04-29, 00:51:00,VALID,915.779,VALID,0,VALID,100,VALID,0.441502,VALID,20.1203,VALID,127,VALID,0.951563,
2003-04-29, 00:52:00,VALID,915.798,VALID,0,VALID,100,VALID,0.475463,VALID,20.1076,VALID,146,VALID,1.06786,
2003-04-29, 00:53:00,VALID,915.816,VALID,0,VALID,100,VALID,0.492444,VALID,20.1106,VALID,151,VALID,1.09736,
2003-04-29, 00:54:00,VALID,915.829,VALID,0,VALID,100,VALID,0.526406,VALID,20.1109,VALID,154,VALID,1.09858,
2003-04-29, 00:55:00,VALID,915.839,VALID,0,VALID,100,VALID,0.526406,VALID,20.1238,VALID,144,VALID,0.796205,
2003-04-29, 00:56:00,VALID,915.846,VALID,0,VALID,100,VALID,0.560367,VALID,20.1338,VALID,125,VALID,1.16348,
2003-04-29, 00:57:00,VALID,915.848,VALID,0,VALID,100,VALID,0.526406,VALID,20.1467,VALID,161,VALID,0.741741,
2003-04-29, 00:58:00,VALID,915.83,VALID,0,VALID,100,VALID,0.492444,VALID,20.13,VALID,174,VALID,0.925781,
2003-04-29, 00:59:00,VALID,915.801,VALID,0,VALID,100,VALID,0.543387,VALID,20.1499,VALID,180,VALID,0.838405,
2003-04-29, 01:00:00,VALID,915.767,VALID,0,VALID,100,VALID,0.509425,VALID,20.1591,VALID,179,VALID,1.33214,
2003-04-29, 01:01:00,VALID,915.722,VALID,0,VALID,100,VALID,0.526406,VALID,20.1499,VALID,175,VALID,0.957589,
2003-04-29, 01:02:00,VALID,915.692,VALID,0,VALID,100,VALID,0.492444,VALID,20.1726,VALID,174,VALID,0.963341,
2003-04-29, 01:03:00,VALID,915.665,VALID,0,VALID,100,VALID,0.543387,VALID,20.1758,VALID,184,VALID,0.533318,
2003-04-29, 01:04:00,VALID,915.666,VALID,0,VALID,100,VALID,0.543387,VALID,20.1686,VALID,184,VALID,0.716741,
2003-04-29, 01:05:00,VALID,915.677,VALID,0,VALID,100,VALID,0.509425,VALID,20.1887,VALID,212,VALID,0.265234,
2003-04-29, 01:06:00,VALID,915.706,VALID,0,VALID,100,VALID,0.526406,VALID,20.189,VALID,172,VALID,0.25067,
2003-04-29, 01:07:00,VALID,915.71,VALID,0,VALID,100,VALID,0.560367,VALID,20.179,VALID,140,VALID,0.472886,
2003-04-29, 01:08:00,VALID,915.714,VALID,0,VALID,100,VALID,0.577348,VALID,20.1823,VALID,178,VALID,0.385691,
2003-04-29, 01:09:00,VALID,915.721,VALID,0,VALID,100,VALID,0.577348,VALID,20.1693,VALID,155,VALID,0.160714,
2003-04-29, 01:10:00,VALID,915.709,VALID,0,VALID,100,VALID,0.560367,VALID,20.1499,VALID,163,VALID,0.353348,
2003-04-29, 01:11:00,VALID,915.698,VALID,0,VALID,100,VALID,0.543387,VALID,20.1464,VALID,181,VALID,0.34976,
2003-04-29, 01:12:00,VALID,915.664,VALID,0,VALID,100,VALID,0.543387,VALID,20.1303,VALID,189,VALID,0.109835,
2003-04-29, 01:13:00,VALID,915.632,VALID,0,VALID,100,VALID,0.543387,VALID,20.1278,VALID,185,VALID,0.244866,
2003-04-29, 01:14:00,VALID,915.61,VALID,0,VALID,100,VALID,0.560367,VALID,20.1176,VALID,189,VALID,0.44668,
2003-04-29, 01:15:00,VALID,915.587,VALID,0,VALID,100,VALID,0.577348,VALID,20.1012,VALID,207,VALID,0.170312,
2003-04-29, 01:16:00,VALID,915.573,VALID,0,VALID,100,VALID,0.560367,VALID,20.0815,VALID,212,VALID,0.308594,
2003-04-29, 01:17:00,VALID,915.548,VALID,0,VALID,100,VALID,0.61131,VALID,20.082,VALID,178,VALID,0.725946,
2003-04-29, 01:18:00,VALID,915.55,VALID,0,VALID,100,VALID,0.577348,VALID,20.0658,VALID,161,VALID,0.398661,
2003-04-29, 01:19:00,VALID,915.559,VALID,0,VALID,100,VALID,0.543387,VALID,20.0467,VALID,166,VALID,0.581473,
2003-04-29, 01:20:00,VALID,915.562,VALID,0,VALID,100,VALID,0.594329,VALID,20.0497,VALID,185,VALID,0.36879,
2003-04-29, 01:21:00,VALID,915.567,VALID,0,VALID,100,VALID,0.543387,VALID,20.0462,VALID,155,VALID,0.244485,
2003-04-29, 01:22:00,VALID,915.555,VALID,0,VALID,100,VALID,0.577348,VALID,20.027,VALID,157,VALID,0.44375,
2003-04-29, 01:23:00,VALID,915.528,VALID,0,VALID,100,VALID,0.577348,VALID,20.0273,VALID,137,VALID,0.682617,
2003-04-29, 01:24:00,VALID,915.488,VALID,0,VALID,100,VALID,0.526406,VALID,20.0281,VALID,135,VALID,0.591071,
2003-04-29, 01:25:00,VALID,915.449,VALID,0,VALID,100,VALID,0.509425,VALID,19.989,VALID,127,VALID,0.741039,
2003-04-29, 01:26:00,VALID,915.431,VALID,0,VALID,100,VALID,0.475463,VALID,20.0019,VALID,131,VALID,0.815378,
2003-04-29, 01:27:00,VALID,915.389,VALID,0,VALID,100,VALID,0.492444,VALID,20.0221,VALID,113,VALID,0.609598,
2003-04-29, 01:28:00,VALID,915.379,VALID,0,VALID,100,VALID,0.526406,VALID,19.9922,VALID,115,VALID,0.599107,
2003-04-29, 01:29:00,VALID,915.378,VALID,0,VALID,100,VALID,0.543387,VALID,19.9766,VALID,89,VALID,0.626803,
2003-04-29, 01:30:00,VALID,915.374,VALID,0,VALID,100,VALID,0.492444,VALID,19.9477,VALID,82,VALID,0.950597,
2003-04-29, 01:31:00,VALID,915.359,VALID,0,VALID,100,VALID,0.509425,VALID,19.9472,VALID,70,VALID,1.04286,
2003-04-29, 01:32:00,VALID,915.356,VALID,0,VALID,100,VALID,0.526406,VALID,19.9477,VALID,83,VALID,1.13359,
2003-04-29, 01:33:00,VALID,915.344,VALID,0,VALID,100,VALID,0.509425,VALID,19.9539,VALID,74,VALID,1.27254,
2003-04-29, 01:34:00,VALID,915.326,VALID,0,VALID,100,VALID,0.509425,VALID,19.9377,VALID,89,VALID,1.19049,
2003-04-29, 01:35:00,VALID,915.295,VALID,0,VALID,100,VALID,0.526406,VALID,19.9572,VALID,90,VALID,1.15419,
2003-04-29, 01:36:00,VALID,915.254,VALID,0,VALID,100,VALID,0.509425,VALID,19.9835,VALID,94,VALID,1.14888,
2003-04-29, 01:37:00,VALID,915.226,VALID,0,VALID,100,VALID,0.526406,VALID,19.9711,VALID,97,VALID,0.953125,
2003-04-29, 01:38:00,VALID,915.217,VALID,0,VALID,100,VALID,0.492444,VALID,19.9415,VALID,99,VALID,0.873598,
2003-04-29, 01:39:00,VALID,915.204,VALID,0,VALID,100,VALID,0.526406,VALID,19.9144,VALID,100,VALID,1.09099,
2003-04-29, 01:40:00,VALID,915.189,VALID,0,VALID,100,VALID,0.628291,VALID,19.9037,VALID,99,VALID,0.81875,
2003-04-29, 01:41:00,VALID,915.185,VALID,0,VALID,100,VALID,0.577348,VALID,19.9009,VALID,101,VALID,0.708789,
2003-04-29, 01:42:00,VALID,915.17,VALID,0,VALID,100,VALID,0.628291,VALID,19.8783,VALID,90,VALID,0.85067,
2003-04-29, 01:43:00,VALID,915.168,VALID,0,VALID,100,VALID,0.577348,VALID,19.8626,VALID,111,VALID,0.884651,
2003-04-29, 01:44:00,VALID,915.156,VALID,0,VALID,100,VALID,0.628291,VALID,19.8459,VALID,91,VALID,0.818668,
2003-04-29, 01:45:00,VALID,915.143,VALID,0,VALID,100,VALID,0.543387,VALID,19.8556,VALID,106,VALID,0.940625,
2003-04-29, 01:46:00,VALID,915.121,VALID,0,VALID,100,VALID,0.492444,VALID,19.8666,VALID,102,VALID,1.10647,
2003-04-29, 01:47:00,VALID,915.098,VALID,0,VALID,100,VALID,0.526406,VALID,19.8855,VALID,112,VALID,0.955128,
2003-04-29, 01:48:00,VALID,915.07,VALID,0,VALID,100,VALID,0.526406,VALID,19.8731,VALID,112,VALID,0.636259,
2003-04-29, 01:49:00,VALID,915.053,VALID,0,VALID,100,VALID,0.475463,VALID,19.8539,VALID,114,VALID,0.869866,
2003-04-29, 01:50:00,VALID,915.018,VALID,0,VALID,100,VALID,0.509425,VALID,19.844,VALID,113,VALID,0.961328,
2003-04-29, 01:51:00,VALID,914.989,VALID,0,VALID,100,VALID,0.526406,VALID,19.8641,VALID,129,VALID,0.975893,
2003-04-29, 01:52:00,VALID,914.964,VALID,0,VALID,100,VALID,0.492444,VALID,19.8666,VALID,115,VALID,1.03217,
2003-04-29, 01:53:00,VALID,914.958,VALID,0,VALID,100,VALID,0.492444,VALID,19.8537,VALID,115,VALID,1.13014,
2003-04-29, 01:54:00,VALID,914.941,VALID,0,VALID,100,VALID,0.509425,VALID,19.8544,VALID,119,VALID,0.918973,
2003-04-29, 01:55:00,VALID,914.926,VALID,0,VALID,100,VALID,0.526406,VALID,19.8375,VALID,113,VALID,1.09174,
2003-04-29, 01:56:00,VALID,914.912,VALID,0,VALID,100,VALID,0.509425,VALID,19.8315,VALID,124,VALID,0.941907,
2003-04-29, 01:57:00,VALID,914.889,VALID,0,VALID,100,VALID,0.509425,VALID,19.8154,VALID,124,VALID,1.17693,
2003-04-29, 01:58:00,VALID,914.843,VALID,0,VALID,100,VALID,0.458482,VALID,19.828,VALID,126,VALID,1.17768,
2003-04-29, 01:59:00,VALID,914.824,VALID,0,VALID,100,VALID,0.526406,VALID,19.8412,VALID,132,VALID,1.11055,
2003-04-29, 02:00:00,VALID,914.807,VALID,0,VALID,100,VALID,0.509425,VALID,19.8415,VALID,111,VALID,0.72433,
2003-04-29, 02:01:00,VALID,914.818,VALID,0,VALID,100,VALID,0.509425,VALID,19.8315,VALID,98,VALID,0.671186,
2003-04-29, 02:02:00,VALID,914.831,VALID,0,VALID,100,VALID,0.509425,VALID,19.8059,VALID,114,VALID,0.645559,
2003-04-29, 02:03:00,VALID,914.853,VALID,0,VALID,100,VALID,0.492444,VALID,19.7887,VALID,123,VALID,0.63683,
2003-04-29, 02:04:00,VALID,914.861,VALID,0,VALID,100,VALID,0.509425,VALID,19.7696,VALID,135,VALID,0.377455,
2003-04-29, 02:05:00,VALID,914.879,VALID,0,VALID,100,VALID,0.526406,VALID,19.7706,VALID,144,VALID,0.659054,
2003-04-29, 02:06:00,VALID,914.87,VALID,0,VALID,100,VALID,0.475463,VALID,19.7609,VALID,148,VALID,0.946461,
2003-04-29, 02:07:00,VALID,914.861,VALID,0,VALID,100,VALID,0.509425,VALID,19.7442,VALID,148,VALID,0.727902,
2003-04-29, 02:08:00,VALID,914.867,VALID,0,VALID,100,VALID,0.492444,VALID,19.7315,VALID,154,VALID,0.620313,
2003-04-29, 02:09:00,VALID,914.863,VALID,0,VALID,100,VALID,0.543387,VALID,19.7273,VALID,161,VALID,0.803795,
2003-04-29, 02:10:00,VALID,914.853,VALID,0,VALID,100,VALID,0.526406,VALID,19.7139,VALID,164,VALID,0.699908,
2003-04-29, 02:11:00,VALID,914.851,VALID,0,VALID,100,VALID,0.594329,VALID,19.7007,VALID,161,VALID,0.747944,
2003-04-29, 02:12:00,VALID,914.85,VALID,0,VALID,100,VALID,0.61131,VALID,19.6945,VALID,163,VALID,0.751339,
2003-04-29, 02:13:00,VALID,914.846,VALID,0,VALID,100,VALID,0.577348,VALID,19.6877,VALID,181,VALID,0.736161,
2003-04-29, 02:14:00,VALID,914.837,VALID,0,VALID,100,VALID,0.560367,VALID,19.6778,VALID,171,VALID,0.636018,
2003-04-29, 02:15:00,VALID,914.824,VALID,0,VALID,100,VALID,0.560367,VALID,19.6596,VALID,162,VALID,0.773667,
2003-04-29, 02:16:00,VALID,914.83,VALID,0,VALID,100,VALID,0.577348,VALID,19.6584,VALID,150,VALID,0.487723,
2003-04-29, 02:17:00,VALID,914.816,VALID,0,VALID,100,VALID,0.560367,VALID,19.6564,VALID,169,VALID,0.625977,
2003-04-29, 02:18:00,VALID,914.805,VALID,0,VALID,100,VALID,0.577348,VALID,19.6527,VALID,170,VALID,0.856473,
2003-04-29, 02:19:00,VALID,914.801,VALID,0,VALID,100,VALID,0.61131,VALID,19.6497,VALID,170,VALID,0.704504,
2003-04-29, 02:20:00,VALID,914.813,VALID,0,VALID,100,VALID,0.526406,VALID,19.6432,VALID,159,VALID,0.494655,
2003-04-29, 02:21:00,VALID,914.809,VALID,0,VALID,100,VALID,0.509425,VALID,19.64,VALID,142,VALID,0.394097,
2003-04-29, 02:22:00,VALID,914.806,VALID,0,VALID,100,VALID,0.458482,VALID,19.6236,VALID,144,VALID,0.269866,
2003-04-29, 02:23:00,VALID,914.809,VALID,0,VALID,100,VALID,0.594329,VALID,19.6467,VALID,185,VALID,0.294071,
2003-04-29, 02:24:00,VALID,914.798,VALID,0,VALID,100,VALID,0.645272,VALID,19.6134,VALID,225,VALID,0.363281,
2003-04-29, 02:25:00,VALID,914.786,VALID,0,VALID,100,VALID,0.526406,VALID,19.6042,VALID,232,VALID,0.0857143,
2003-04-29, 02:26:00,VALID,914.772,VALID,0,VALID,100,VALID,0.628291,VALID,19.5843,VALID,232,VALID,0.0550781,
2003-04-29, 02:27:00,VALID,914.754,VALID,0,VALID,100,VALID,0.61131,VALID,19.591,VALID,232,VALID,0,
2003-04-29, 02:28:00,VALID,914.73,VALID,0,VALID,100,VALID,0.594329,VALID,19.5781,VALID,232,VALID,0,
2003-04-29, 02:29:00,VALID,914.715,VALID,0,VALID,100,VALID,0.543387,VALID,19.5492,VALID,232,VALID,0,
2003-04-29, 02:30:00,VALID,914.707,VALID,0,VALID,100,VALID,0.594329,VALID,19.5365,VALID,232,VALID,0,
2003-04-29, 02:31:00,VALID,914.711,VALID,0,VALID,100,VALID,0.577348,VALID,19.533,VALID,232,VALID,0,
2003-04-29, 02:32:00,VALID,914.714,VALID,0,VALID,100,VALID,0.61131,VALID,19.5196,VALID,232,VALID,0,
2003-04-29, 02:33:00,VALID,914.713,VALID,0,VALID,100,VALID,0.594329,VALID,19.5171,VALID,232,VALID,0,
2003-04-29, 02:34:00,VALID,914.726,VALID,0,VALID,100,VALID,0.543387,VALID,19.4716,VALID,232,VALID,0,
2003-04-29, 02:35:00,VALID,914.738,VALID,0,VALID,100,VALID,0.577348,VALID,19.4203,VALID,324,VALID,0.416602,
2003-04-29, 02:36:00,VALID,914.745,VALID,0,VALID,100,VALID,0.560367,VALID,19.3873,VALID,360,VALID,0.731696,
2003-04-29, 02:37:00,VALID,914.742,VALID,0,VALID,100,VALID,0.560367,VALID,19.3649,VALID,11,VALID,0.860983,
2003-04-29, 02:38:00,VALID,914.749,VALID,0,VALID,100,VALID,0.594329,VALID,19.3452,VALID,11,VALID,0.854441,
2003-04-29, 02:39:00,VALID,914.739,VALID,0,VALID,100,VALID,0.594329,VALID,19.3748,VALID,11,VALID,0.846429,
2003-04-29, 02:40:00,VALID,914.732,VALID,0,VALID,100,VALID,0.628291,VALID,19.3811,VALID,11,VALID,0.782812,
2003-04-29, 02:41:00,VALID,914.703,VALID,0,VALID,100,VALID,0.577348,VALID,19.4104,VALID,11,VALID,0.573117,
2003-04-29, 02:42:00,VALID,914.692,VALID,0,VALID,100,VALID,0.543387,VALID,19.4305,VALID,11,VALID,0.25,
2003-04-29, 02:43:00,VALID,914.687,VALID,0,VALID,100,VALID,0.543387,VALID,19.4853,VALID,13,VALID,0.271429,
2003-04-29, 02:44:00,VALID,914.672,VALID,0,VALID,100,VALID,0.61131,VALID,19.5009,VALID,26,VALID,0.464453,
2003-04-29, 02:45:00,VALID,914.676,VALID,0,VALID,100,VALID,0.594329,VALID,19.5338,VALID,58,VALID,0.51317,
2003-04-29, 02:46:00,VALID,914.672,VALID,0,VALID,100,VALID,0.492444,VALID,19.5233,VALID,53,VALID,0.268842,
2003-04-29, 02:47:00,VALID,914.682,VALID,0,VALID,100,VALID,0.61131,VALID,19.537,VALID,72,VALID,0.315173,
2003-04-29, 02:48:00,VALID,914.685,VALID,0,VALID,100,VALID,0.628291,VALID,19.5524,VALID,118,VALID,0.473884,
2003-04-29, 02:49:00,VALID,914.683,VALID,0,VALID,100,VALID,0.560367,VALID,19.5589,VALID,136,VALID,0.307813,
2003-04-29, 02:50:00,VALID,914.686,VALID,0,VALID,100,VALID,0.61131,VALID,19.5594,VALID,128,VALID,0.439704,
2003-04-29, 02:51:00,VALID,914.687,VALID,0,VALID,100,VALID,0.628291,VALID,19.5131,VALID,123,VALID,0.545267,
2003-04-29, 02:52:00,VALID,914.679,VALID,0,VALID,100,VALID,0.662252,VALID,19.5226,VALID,112,VALID,0.50067,
2003-04-29, 02:53:00,VALID,914.677,VALID,0,VALID,100,VALID,0.61131,VALID,19.5111,VALID,142,VALID,0.767773,
2003-04-29, 02:54:00,VALID,914.67,VALID,0,VALID,100,VALID,0.594329,VALID,19.4945,VALID,143,VALID,1.21049,
2003-04-29, 02:55:00,VALID,914.654,VALID,0,VALID,100,VALID,0.645272,VALID,19.5009,VALID,144,VALID,1.16062,
2003-04-29, 02:56:00,VALID,914.669,VALID,0,VALID,100,VALID,0.628291,VALID,19.5039,VALID,139,VALID,0.754523,
2003-04-29, 02:57:00,VALID,914.67,VALID,0,VALID,100,VALID,0.628291,VALID,19.5241,VALID,117,VALID,0.633259,
2003-04-29, 02:58:00,VALID,914.672,VALID,0,VALID,100,VALID,0.526406,VALID,19.5136,VALID,114,VALID,0.52567,
2003-04-29, 02:59:00,VALID,914.677,VALID,0,VALID,100,VALID,0.628291,VALID,19.5238,VALID,89,VALID,0.492388,
2003-04-29, 03:00:00,VALID,914.683,VALID,0,VALID,100,VALID,0.713195,VALID,19.4522,VALID,80,VALID,0.540901,
2003-04-29, 03:01:00,VALID,914.681,VALID,0,VALID,100,VALID,0.577348,VALID,19.4298,VALID,80,VALID,0.653795,
2003-04-29, 03:02:00,VALID,914.696,VALID,0,VALID,100,VALID,0.662252,VALID,19.4395,VALID,83,VALID,0.610156,
2003-04-29, 03:03:00,VALID,914.713,VALID,0,VALID,100,VALID,0.645272,VALID,19.4688,VALID,84,VALID,0.607143,
2003-04-29, 03:04:00,VALID,914.722,VALID,0,VALID,100,VALID,0.679233,VALID,19.5079,VALID,87,VALID,0.682445,
2003-04-29, 03:05:00,VALID,914.728,VALID,0,VALID,100,VALID,0.628291,VALID,19.5494,VALID,87,VALID,0.735814,
2003-04-29, 03:06:00,VALID,914.723,VALID,0,VALID,100,VALID,0.61131,VALID,19.5701,VALID,94,VALID,0.564286,
2003-04-29, 03:07:00,VALID,914.732,VALID,0,VALID,100,VALID,0.662252,VALID,19.5758,VALID,109,VALID,0.502455,
2003-04-29, 03:08:00,VALID,914.734,VALID,0,VALID,100,VALID,0.628291,VALID,19.5562,VALID,102,VALID,0.172476,
2003-04-29, 03:09:00,VALID,914.746,VALID,0,VALID,100,VALID,0.645272,VALID,19.5173,VALID,102,VALID,0,
2003-04-29, 03:10:00,VALID,914.742,VALID,0,VALID,100,VALID,0.594329,VALID,19.4912,VALID,102,VALID,0,
2003-04-29, 03:11:00,VALID,914.743,VALID,0,VALID,100,VALID,0.594329,VALID,19.4758,VALID,102,VALID,0,
2003-04-29, 03:12:00,VALID,914.756,VALID,0,VALID,100,VALID,0.713195,VALID,19.4524,VALID,102,VALID,0,
2003-04-29, 03:13:00,VALID,914.769,VALID,0,VALID,100,VALID,0.628291,VALID,19.4333,VALID,102,VALID,0,
2003-04-29, 03:14:00,VALID,914.766,VALID,0,VALID,100,VALID,0.679233,VALID,19.4077,VALID,102,VALID,0.113487,
2003-04-29, 03:15:00,VALID,914.756,VALID,0,VALID,100,VALID,0.645272,VALID,19.349,VALID,103,VALID,0.330357,
2003-04-29, 03:16:00,VALID,914.758,VALID,0,VALID,100,VALID,0.679233,VALID,19.3201,VALID,145,VALID,0.45067,
2003-04-29, 03:17:00,VALID,914.746,VALID,0,VALID,100,VALID,0.645272,VALID,19.3166,VALID,145,VALID,0.316707,
2003-04-29, 03:18:00,VALID,914.739,VALID,0,VALID,100,VALID,0.594329,VALID,19.3338,VALID,143,VALID,0.247702,
2003-04-29, 03:19:00,VALID,914.743,VALID,0,VALID,100,VALID,0.679233,VALID,19.3328,VALID,132,VALID,0.416964,
2003-04-29, 03:20:00,VALID,914.736,VALID,0,VALID,100,VALID,0.662252,VALID,19.3002,VALID,115,VALID,0.557227,
2003-04-29, 03:21:00,VALID,914.72,VALID,0,VALID,100,VALID,0.645272,VALID,19.3034,VALID,135,VALID,0.321205,
2003-04-29, 03:22:00,VALID,914.706,VALID,0,VALID,100,VALID,0.543387,VALID,19.3042,VALID,128,VALID,0.667279,
2003-04-29, 03:23:00,VALID,914.693,VALID,0,VALID,100,VALID,0.645272,VALID,19.3171,VALID,120,VALID,0.688939,
2003-04-29, 03:24:00,VALID,914.687,VALID,0,VALID,100,VALID,0.679233,VALID,19.3233,VALID,101,VALID,0.529688,
2003-04-29, 03:25:00,VALID,914.68,VALID,0,VALID,100,VALID,0.61131,VALID,19.3328,VALID,112,VALID,1.00379,
2003-04-29, 03:26:00,VALID,914.695,VALID,0,VALID,100,VALID,0.645272,VALID,19.3591,VALID,101,VALID,0.825321,
2003-04-29, 03:27:00,VALID,914.705,VALID,0,VALID,100,VALID,0.645272,VALID,19.3201,VALID,86,VALID,0.818704,
2003-04-29, 03:28:00,VALID,914.733,VALID,0,VALID,100,VALID,0.645272,VALID,19.3268,VALID,81,VALID,0.96942,
2003-04-29, 03:29:00,VALID,914.758,VALID,0,VALID,100,VALID,0.628291,VALID,19.3042,VALID,82,VALID,0.925,
2003-04-29, 03:30:00,VALID,914.774,VALID,0,VALID,100,VALID,0.662252,VALID,19.2843,VALID,85,VALID,1.1442,
2003-04-29, 03:31:00,VALID,914.774,VALID,0,VALID,100,VALID,0.696214,VALID,19.3196,VALID,85,VALID,1.17946,
2003-04-29, 03:32:00,VALID,914.786,VALID,0,VALID,100,VALID,0.713195,VALID,19.3161,VALID,93,VALID,1.07442,
2003-04-29, 03:33:00,VALID,914.786,VALID,0,VALID,100,VALID,0.645272,VALID,19.3427,VALID,107,VALID,1.05848,
2003-04-29, 03:34:00,VALID,914.779,VALID,0,VALID,100,VALID,0.628291,VALID,19.3621,VALID,101,VALID,1.13237,
2003-04-29, 03:35:00,VALID,914.781,VALID,0,VALID,100,VALID,0.662252,VALID,19.3748,VALID,98,VALID,0.70633,
2003-04-29, 03:36:00,VALID,914.789,VALID,0,VALID,100,VALID,0.713195,VALID,19.3753,VALID,100,VALID,0.919347,
2003-04-29, 03:37:00,VALID,914.802,VALID,0,VALID,100,VALID,0.628291,VALID,19.3589,VALID,100,VALID,0.903795,
2003-04-29, 03:38:00,VALID,914.807,VALID,0,VALID,100,VALID,0.713195,VALID,19.3815,VALID,103,VALID,1.14375,
2003-04-29, 03:39:00,VALID,914.785,VALID,0,VALID,100,VALID,0.764137,VALID,19.3878,VALID,103,VALID,0.89308,
2003-04-29, 03:40:00,VALID,914.789,VALID,0,VALID,100,VALID,0.798099,VALID,19.3806,VALID,116,VALID,0.977252,
2003-04-29, 03:41:00,VALID,914.775,VALID,0,VALID,100,VALID,0.798099,VALID,19.3942,VALID,121,VALID,0.911595,
2003-04-29, 03:42:00,VALID,914.751,VALID,0,VALID,100,VALID,0.781118,VALID,19.4069,VALID,133,VALID,0.998661,